Flag for Norway Weather past 2 weeks in Langesund, Norway

Now
72 °F

Mild.


Feels Like: 77 °F
Forecast: 57 / 74 °F
Wind: 9 mph from West

Location: Jomfruland Fyr

Current Time: Jul 31, 2014 at 5:43:27 PM

Latest Report: Jul 31, 2014 at 5:00 PM


Visibility: N/A

Pressure: 29.70 "Hg

Humidity: 48%

Dew point: 51 °F

Location of LangesundLocation

Historic Weather in Langesund — Graph

°F

Langesund temperature yesterday

Maximum temperature yesterday: 75 °F (at 7:00 PM)
Minimum temperature yesterday: 65 °F (at 6:00 AM)
Average temperature yesterday: 70 °F

Past Weeks' High & Low Weather Summary

 TemperatureHumidityPressure
High83 °F (Jul 21, 4:00 PM)92% (Jul 28, 12:00 AM)30.30 "Hg (Jul 28, 12:00 AM)
Low57 °F (Jul 19, 5:00 AM)30% (Jul 21, 4:00 PM)29.63 "Hg (Jul 30, 4:00 PM)
Average70 °F70%30.02 "Hg
* Reported Jul 16 4:00 PM — Jul 31 4:00 PM, Langesund, Weather by CustomWeather, © 2014

Note: Actual official high and low records may vary slightly from our data, if they occured in-between our weather recording intervals... More about our weather records

Advertising

Langesund weather history for previous 24 hours

 ConditionsComfort  
Time TempWeatherWind HumidityBarometerVisibility
4:00 PM
Jul 31
67 °FMild.14 mph74%29.68 "HgN/A
3:00 PM67 °FMild.15 mph74%29.68 "HgN/A
2:00 PM68 °FMild.14 mph68%29.68 "HgN/A
1:00 PM69 °FMild.12 mph68%29.68 "HgN/A
12:00 PM68 °FMild.10 mph65%29.68 "HgN/A
11:00 AM67 °FMild.9 mph66%29.69 "HgN/A
10:00 AM65 °FMild.9 mph70%29.69 "HgN/A
9:00 AM64 °FMild.8 mph70%29.68 "HgN/A
8:00 AM64 °FMild.7 mph67%29.69 "HgN/A
7:00 AM62 °FCool.7 mph72%29.69 "HgN/A
6:00 AM61 °FCool.7 mph75%29.69 "HgN/A
5:00 AM61 °FCool.7 mph73%29.68 "HgN/A
4:00 AM61 °FCool.8 mph74%29.68 "HgN/A
3:00 AM62 °FCool.8 mph72%29.68 "HgN/A
2:00 AM62 °FMild.7 mph71%29.68 "HgN/A
1:00 AM65 °FMild.9 mph69%29.68 "HgN/A
12:00 AM66 °FMild.9 mph62%29.68 "HgN/A
11:00 PM
Jul 30
67 °FMild.8 mph55%29.68 "HgN/A
10:00 PM69 °FMild.8 mph52%29.67 "HgN/A
9:00 PM71 °FMild.9 mph49%29.67 "HgN/A
8:00 PM72 °FMild.10 mph48%29.65 "HgN/A
7:00 PM75 °FMild.9 mph39%29.63 "HgN/A
6:00 PM75 °FMild.9 mph38%29.63 "HgN/A
5:00 PM72 °FMild.12 mph67%29.63 "HgN/A
Weather by CustomWeather, © 2014

See weather overviewHow to use our weather pages